sat.trackr.live / text

‹ back to catalog

STARLINK-32539

NORAD 62022 · 2024-213Q

PAYLOAD ACTIVE UNKNOWN

§ Identity

Operator
Country
US
Launch date
2024-11-18
Launch site
AFWTR
Launch vehicle
Mass (kg)
RCS (m²)

Purposes: comms

External: N2YO · Heavens-Above · Gunter

§ Orbital elements

Epoch: 2026-09-21T10:07:40.663488Z

Period
93.85 min
Inclination
53.1609°
Eccentricity
0.0001520
Mean motion
15.34409027 rev/d
Perigee alt
461.6 km
Apogee alt
463.7 km
Semi-major
6,840.8 km
B*
6.5384e-4
RAAN
325.2063°
Arg perigee
66.1446°
Mean anomaly
293.9715°
Rev number
10,331

§ Raw data

STARLINK-325391 62022U 24213Q   26264.42199842  .00021785  00000+0  65384-3 0  99942 62022  53.1609 325.2063 0001520  66.1446 293.9715 15.34409027103313

JSON: /api/v1/satellites/62022 · /tle

For live sub-satellite position, see the globe view (requires WebGL).

§ Visibility from observer

Set your observer location to see the next 7 days of passes ≥ 10°. The values pass through the URL so the page stays shareable.

No JS? Fill the form by hand. The geolocation button needs JavaScript.